Theta_e
308 305 309 312 321 325 326 327 327 328 326 325 323 324 322 323 323 324 324 324 325 324 322 321 318 317 317 317 315 314 313 313 312 312 312 314 316 314 314 314 314 314 314
307 309 309 307 315 322 325 326 327 327 327 327 326 326 325 325 324 324 323 323 324 324 323 321 318 317 316 315 314 314 311 313 313 311 310 307 308 310 315 313 315 314 313
307 309 310 309 308 318 323 325 326 327 328 328 327 326 325 325 323 323 322 322 322 323 323 322 320 317 316 315 314 314 314 312 312 315 311 306 303 304 309 310 314 314 312
306 308 309 308 308 311 321 325 326 326 328 328 326 324 323 321 323 323 323 323 322 322 322 322 321 319 317 316 315 315 315 314 311 311 316 311 308 304 304 309 309 311 311
303 305 307 309 311 309 314 323 325 326 327 327 327 326 324 325 325 324 323 323 323 322 321 321 321 320 319 318 316 315 314 315 314 314 310 315 312 309 307 306 309 309 311
303 303 305 308 309 307 312 319 323 324 326 326 327 326 325 324 324 323 322 323 322 322 321 321 321 320 319 319 318 316 316 316 316 316 316 313 313 313 310 309 310 308 310
302 302 302 304 305 304 305 315 319 322 324 325 326 326 326 325 324 324 323 322 322 321 321 321 320 320 320 320 320 319 317 316 316 317 317 317 316 313 314 312 309 306 308
301 302 302 302 302 303 304 305 315 319 323 324 325 326 327 326 326 326 325 324 323 323 323 322 321 320 320 320 320 320 319 319 318 317 318 318 318 317 315 313 311 305 304
299 299 300 301 302 303 305 305 310 317 321 323 324 325 326 326 326 327 327 326 325 324 324 323 321 321 320 320 320 319 319 319 319 318 318 318 318 318 318 316 314 310 307
298 298 298 297 301 303 305 307 308 313 318 321 323 324 325 326 327 327 326 326 326 325 324 323 322 321 320 320 320 319 320 319 320 319 319 318 319 319 319 317 316 315 313
297 297 298 297 298 299 300 301 304 305 308 314 320 322 324 325 326 326 327 326 326 326 324 324 322 321 320 320 319 319 319 318 318 319 319 319 320 319 319 318 318 316 316
297 298 299 298 299 299 300 301 301 302 304 307 310 317 321 323 324 325 326 327 326 326 325 325 323 322 321 321 319 318 318 318 318 318 318 318 319 318 319 318 317 316 317
295 293 294 294 294 294 295 296 298 300 302 303 305 307 313 318 321 323 325 326 326 326 326 325 324 323 322 321 321 319 319 319 319 319 319 319 318 317 318 318 317 317 315
291 291 291 292 292 292 292 293 294 297 296 298 301 302 305 309 314 319 322 324 325 325 326 326 325 324 324 323 321 320 320 319 319 319 320 319 318 318 317 317 316 315 313
288 287 288 288 289 289 289 291 292 293 292 293 296 300 302 304 308 312 316 320 322 324 325 324 324 324 323 323 322 320 320 319 319 319 319 319 316 307 314 316 315 313 311
285 285 285 286 287 286 287 288 290 289 290 291 293 296 299 300 302 307 311 313 316 319 321 321 322 322 322 312 307 315 320 319 318 318 318 319 301 303 302 303 305 311 311
282 282 282 284 284 283 285 285 287 287 288 289 290 293 293 293 295 298 302 304 309 313 316 318 320 320 321 308 305 302 320 319 318 318 317 315 313 302 310 302 301 302 303
279 280 280 281 282 282 283 284 284 284 286 286 287 287 286 287 289 292 293 297 302 305 309 313 316 318 319 307 303 300 316 319 319 318 317 314 310 305 308 307 302 301 299
278 278 280 279 280 280 280 281 280 282 283 283 283 284 284 284 285 287 290 293 296 298 302 306 309 313 315 305 302 302 314 315 316 315 315 314 310 300 298 298 294 290 288
276 277 277 277 277 278 279 277 278 279 280 281 280 282 283 283 283 286 288 290 293 294 296 298 302 302 309 305 300 302 311 308 308 294 298 294 304 295 297 300 293 290 288
275 275 275 274 275 276 275 275 275 275 278 278 280 280 281 282 284 285 287 288 290 292 294 294 297 298 300 305 298 299 308 307 296 297 292 292 295 294 296 299 294 294 288
272 272 272 272 273 273 272 271 271 275 274 275 276 277 278 281 284 285 286 286 288 289 291 292 293 296 295 292 296 298 300 303 298 297 297 294 294 295 295 294 295 292 289
270 271 270 270 271 271 270 269 271 271 272 273 272 273 277 280 284 285 285 285 287 288 289 290 292 293 294 291 293 295 296 297 297 298 295 293 293 294 294 294 291 288 288
268 268 268 267 267 268 269 268 269 269 269 268 270 272 275 278 284 285 286 286 286 286 288 289 290 292 293 289 289 290 293 291 289 289 290 291 292 292 291 288 289 288 288
267 267 266 265 265 267 266 266 267 268 267 268 269 271 274 276 280 284 285 286 287 287 287 288 290 290 291 290 291 291 290 290 289 287 287 287 287 286 286 287 286 286 286
265 264 264 264 264 265 264 265 265 266 266 266 268 270 273 276 280 282 284 288 289 289 290 290 290 290 291 293 292 292 292 291 289 286 286 286 286 286 286 286 285 285 285
Wind_Speed
11 10 13 11 14 14 15 19 16 19 13 14 12 12 13 10 9 10 13 13 13 14 14 10 10 9 10 11 9 6 7 7 4 2 3 4 7 7 6 5 5 7 7
12 15 14 12 11 16 17 17 19 19 17 13 14 13 12 11 10 8 11 13 14 14 14 14 11 12 9 10 10 10 4 6 6 4 1 3 4 4 9 5 7 9 5
20 19 16 15 12 15 17 18 19 19 18 19 10 9 7 8 8 10 11 13 15 15 16 15 13 11 12 11 11 12 14 9 5 10 5 3 6 1 2 6 8 8 5
17 16 15 14 15 17 17 19 19 19 18 18 14 18 14 14 13 12 11 12 15 16 17 16 15 14 11 14 12 11 12 10 9 3 10 4 4 5 3 3 4 5 7
13 14 15 16 18 15 15 16 19 18 19 18 20 16 17 14 10 10 13 15 14 17 17 18 17 16 12 14 15 13 14 12 10 9 3 12 7 3 3 5 4 2 5
15 12 12 14 15 11 12 12 16 18 18 18 21 21 21 18 13 13 12 12 12 11 17 17 17 16 15 16 14 14 16 15 13 11 11 8 9 12 9 9 9 6 4
15 14 13 12 13 9 10 10 13 17 17 19 20 22 21 20 20 18 14 13 12 11 16 19 18 16 18 16 15 15 16 15 15 16 12 10 11 4 9 9 6 6 4
13 13 11 9 9 8 8 7 8 12 14 17 20 19 21 14 15 17 14 12 13 14 16 17 19 20 19 18 16 13 14 16 15 19 16 12 12 10 9 9 7 4 5
12 12 11 9 8 7 6 5 7 8 9 14 15 16 16 19 17 18 17 15 15 13 15 16 18 20 19 19 18 14 17 16 17 17 17 14 12 11 11 10 10 9 9
10 11 11 10 9 8 7 5 4 8 9 9 11 13 16 17 18 16 18 17 16 15 15 17 18 19 19 19 19 17 17 18 15 13 17 16 13 12 10 11 10 10 12
9 10 9 8 8 8 9 9 7 7 8 6 8 9 12 15 15 17 18 17 17 17 18 18 18 19 20 19 19 20 19 19 18 17 18 20 18 13 11 10 11 12 11
8 12 14 12 14 15 16 15 15 15 14 8 7 7 8 12 14 16 18 18 18 18 19 18 18 19 19 20 20 21 18 20 20 21 19 20 13 17 15 12 15 13 12
15 15 16 15 16 16 16 17 17 17 17 18 15 10 9 11 13 16 17 17 18 18 18 19 20 19 19 19 20 21 21 21 21 20 19 19 16 16 13 14 14 12 10
12 14 16 17 14 16 16 15 17 17 18 19 17 15 15 14 13 14 15 16 16 17 18 18 19 19 19 21 21 20 21 20 19 20 19 19 19 19 19 16 16 12 10
13 13 14 15 16 17 17 17 16 16 18 18 18 17 16 16 15 14 13 14 15 15 17 18 18 18 18 16 20 20 21 21 20 20 19 20 21 24 21 13 14 13 11
14 16 16 17 16 18 20 19 17 19 18 17 18 19 18 17 17 16 15 12 13 13 14 16 17 18 14 17 20 21 18 20 20 19 19 19 15 19 23 21 19 17 15
15 16 17 16 17 18 18 19 19 19 18 17 18 17 18 18 17 17 16 12 13 13 14 16 17 19 20 20 22 23 19 18 19 20 18 15 13 14 16 18 19 18 20
14 14 16 17 18 18 17 18 17 17 16 17 16 17 19 19 19 18 15 15 12 13 14 15 17 19 18 18 21 23 22 20 20 19 18 16 15 14 16 13 13 12 10
13 13 14 16 18 18 20 18 19 17 17 17 19 18 20 21 20 20 18 15 13 13 13 14 16 18 19 17 19 17 18 20 21 16 16 17 15 14 17 13 12 9 4
14 15 17 16 16 15 16 18 18 18 17 18 21 18 18 20 21 19 19 16 14 15 11 13 14 18 18 16 17 19 13 16 13 4 8 15 15 18 23 17 14 13 11
14 16 15 15 15 17 17 18 17 18 19 20 20 19 18 19 20 20 16 16 16 14 14 14 13 14 15 16 17 21 15 12 8 10 7 7 16 22 26 23 16 15 14
17 18 15 15 16 16 17 18 18 18 20 20 20 20 19 16 15 20 17 16 15 15 14 13 12 10 10 13 15 21 26 14 12 12 9 9 21 23 25 19 17 22 18
16 15 15 17 15 16 17 19 20 21 21 20 20 20 20 17 16 17 18 15 13 12 13 11 12 10 6 6 14 16 19 18 11 8 11 16 23 23 20 20 22 20 10
15 15 16 16 16 16 17 17 19 20 20 21 20 18 18 18 16 13 13 12 12 13 12 11 12 10 9 5 3 5 8 12 4 7 7 12 14 16 13 13 15 9 9
12 13 13 14 15 16 18 17 18 18 19 19 18 17 14 16 16 13 12 11 11 12 12 12 10 10 11 6 10 11 8 8 8 8 6 7 8 9 8 7 8 7 9
11 11 12 13 14 15 16 18 19 18 18 18 15 14 14 14 13 13 14 16 20 23 24 25 20 12 15 14 16 18 18 17 23 5 7 9 10 11 11 11 10 9 11
Wind_Direction
256 250 255 242 229 221 216 212 203 207 203 192 201 207 213 210 210 207 205 203 206 202 202 204 202 197 202 208 203 202 200 222 201 168 263 261 242 235 229 217 217 226 219
273 263 255 249 222 218 215 216 213 208 204 210 196 213 211 213 215 211 211 204 203 204 204 205 205 204 203 209 200 200 197 214 179 177 153 253 296 265 240 225 232 233 209
270 267 259 242 233 221 215 214 216 213 210 208 207 209 212 217 207 212 213 210 204 204 207 209 207 204 202 208 208 205 207 214 201 201 165 188 227 262 241 231 236 236 215
263 261 264 258 242 232 222 215 213 211 211 203 203 196 211 212 216 215 219 218 211 209 208 211 209 208 207 212 209 207 211 208 210 203 226 212 161 193 293 264 244 221 231
267 267 262 256 252 243 228 215 213 212 211 204 205 207 211 225 219 217 217 215 216 214 212 212 210 213 212 217 210 206 209 210 214 212 163 226 226 243 195 262 256 266 222
283 277 273 274 266 236 228 219 212 213 210 208 208 208 213 214 214 215 216 218 216 214 217 216 215 214 213 215 213 208 209 212 216 218 217 205 206 220 221 240 239 226 250
279 274 282 288 270 244 227 221 217 217 208 208 209 214 217 216 218 215 215 212 214 215 217 212 213 215 216 216 213 210 213 211 216 217 219 220 220 199 212 227 240 231 237
298 290 289 275 286 285 272 260 238 229 214 211 215 217 221 220 222 222 222 221 219 218 217 213 213 216 215 215 213 215 214 216 218 222 219 219 223 215 212 220 216 248 227
341 339 336 337 334 325 295 238 252 246 237 226 226 227 224 226 226 226 226 227 222 224 220 217 215 216 215 215 212 216 219 217 219 221 220 220 220 220 219 218 214 218 251
349 347 356 353 343 339 322 311 285 261 239 236 229 230 231 228 231 233 231 232 230 223 218 217 216 215 216 215 214 217 221 220 220 221 220 220 222 217 213 214 215 215 231
338 331 329 324 318 328 342 322 317 296 281 250 246 239 239 242 236 233 234 232 230 224 221 218 216 214 215 214 216 219 220 221 223 221 222 224 221 220 217 214 218 219 217
320 331 337 345 0 3 358 348 337 328 322 308 289 260 252 247 245 242 238 234 232 227 227 223 220 217 216 216 216 220 219 220 222 223 223 227 221 222 219 219 222 220 221
20 14 5 5 6 2 357 354 347 341 338 333 323 301 273 260 254 252 247 239 234 232 227 226 224 221 217 218 220 219 221 222 225 223 221 223 217 218 218 217 218 220 217
23 7 3 353 353 352 347 344 343 349 343 337 326 315 301 281 265 259 256 249 240 235 230 228 227 225 222 222 219 218 220 222 224 224 223 218 215 217 217 216 216 216 212
10 5 353 349 346 345 342 340 338 344 339 332 327 319 316 305 288 272 259 255 247 238 232 232 232 230 224 224 220 218 218 220 222 222 222 220 220 217 213 212 214 208 209
356 351 346 343 342 344 336 334 334 339 334 330 325 322 324 320 308 290 274 261 255 248 240 237 232 230 230 225 215 216 220 224 222 221 222 223 212 212 205 205 204 202 205
347 342 340 336 335 334 331 329 333 326 327 327 323 328 333 327 321 311 297 279 268 259 249 244 240 238 235 219 209 210 225 223 223 222 221 219 216 209 210 212 208 205 202
340 336 330 330 330 327 329 325 329 325 325 322 324 329 327 324 318 312 303 292 276 266 264 255 246 245 242 227 212 207 220 228 229 225 219 214 208 202 204 205 210 213 204
330 326 322 325 322 322 327 329 325 323 322 323 324 324 325 319 316 309 304 298 286 275 262 256 257 250 249 229 212 203 223 230 230 220 210 209 209 188 185 184 187 171 159
326 325 326 323 318 326 327 320 320 322 318 323 318 316 316 313 307 303 302 297 283 275 269 265 260 257 257 242 211 203 220 230 228 199 206 196 194 178 184 192 178 180 179
329 324 325 320 327 331 326 321 321 315 321 316 313 315 312 308 305 301 299 297 289 278 270 265 259 255 253 246 217 209 220 223 203 203 194 194 180 179 186 192 187 191 155
333 336 331 329 331 332 328 322 316 321 316 316 315 312 307 305 303 303 306 301 293 285 278 274 271 263 252 240 223 216 218 213 205 209 203 195 185 185 187 182 176 151 144
335 334 330 328 332 333 332 322 323 323 319 317 313 307 304 303 302 304 309 305 301 288 283 276 274 271 258 236 237 226 226 227 212 210 191 181 186 185 185 178 158 146 149
334 333 330 332 332 332 329 323 321 322 319 315 310 308 305 305 303 305 305 301 302 298 290 282 277 278 273 240 211 231 231 229 209 134 160 175 174 175 167 153 155 156 166
336 333 330 329 331 333 328 327 327 324 321 315 311 309 305 307 302 300 299 290 278 273 284 283 281 277 275 251 217 212 206 195 182 138 142 154 160 154 156 162 162 159 162
332 334 328 327 330 335 330 327 329 329 324 318 315 313 311 310 311 308 306 294 283 276 273 274 269 275 271 267 216 218 214 191 160 146 177 179 176 171 169 172 171 174 172